Temp
-4 -6 -5 -5 -4 -5 -4 -4 -4 -5 -4 -5 -5 -5 -5 -5 -5 -6 -6 -5 -6 -6 -6 -6 -6 -6 -6 -6 -6 -6 -6 -6 -6 -6 -6 -6 -6 -6 -7 -7 -7 -7 -7 -8 -8 -8 -8 -8 -8
-5 -6 -5 -4 -5 -5 -5 -5 -6 -6 -6 -5 -5 -5 -5 -5 -5 -5 -5 -5 -5 -6 -6 -6 -6 -6 -6 -6 -6 -6 -6 -6 -6 -6 -6 -6 -6 -6 -6 -6 -6 -7 -7 -7 -7 -8 -8 -8 -8
-5 -5 -5 -6 -5 -5 -5 -5 -4 -6 -5 -5 -5 -5 -5 -4 -5 -5 -5 -5 -5 -6 -6 -6 -6 -6 -6 -7 -7 -7 -6 -6 -6 -6 -6 -6 -7 -6 -6 -6 -6 -6 -7 -7 -7 -8 -8 -8 -8
-4 -5 -5 -3 -5 -5 -5 -4 -5 -5 -5 -5 -5 -5 -5 -5 -5 -5 -5 -5 -5 -6 -6 -6 -6 -7 -6 -7 -7 -7 -7 -7 -6 -6 -7 -7 -7 -7 -6 -6 -7 -6 -7 -7 -7 -8 -8 -8 -8
-4 -5 -6 -4 -4 -4 -5 -4 -5 -5 -5 -5 -5 -5 -5 -5 -4 -5 -5 -5 -5 -6 -6 -6 -6 -7 -7 -7 -7 -7 -7 -7 -6 -6 -7 -7 -7 -7 -7 -7 -7 -7 -7 -7 -7 -8 -8 -8 -8
-5 -4 -3 -5 -4 -5 -5 -4 -5 -5 -5 -5 -5 -5 -5 -5 -5 -5 -5 -5 -5 -5 -6 -6 -6 -6 -6 -6 -6 -6 -7 -7 -7 -6 -6 -7 -7 -7 -6 -6 -6 -6 -7 -7 -7 -7 -8 -8 -8
-5 -4 -6 -4 -4 -5 -5 -4 -5 -5 -5 -5 -5 -5 -5 -5 -5 -5 -5 -5 -5 -5 -6 -6 -6 -6 -6 -6 -6 -6 -6 -7 -6 -6 -7 -7 -6 -7 -7 -6 -6 -6 -7 -7 -7 -7 -7 -7 -7
-6 -4 -6 -5 -5 -7 -5 -5 -6 -5 -5 -5 -5 -5 -5 -5 -5 -5 -5 -5 -6 -6 -6 -6 -6 -6 -6 -6 -6 -6 -7 -6 -7 -6 -7 -7 -6 -6 -6 -6 -6 -6 -7 -7 -7 -7 -7 -7 -8
-5 -7 -6 -6 -6 -5 -5 -5 -5 -5 -5 -6 -5 -6 -6 -5 -5 -5 -6 -6 -5 -5 -6 -6 -6 -6 -6 -6 -6 -7 -6 -7 -7 -7 -7 -7 -6 -6 -6 -7 -6 -6 -7 -7 -7 -7 -8 -8 -8
-7 -7 -5 -5 -7 -5 -5 -5 -4 -4 -4 -5 -5 -5 -5 -5 -5 -5 -5 -6 -6 -6 -6 -6 -6 -6 -6 -6 -6 -6 -6 -6 -6 -6 -7 -7 -7 -6 -6 -6 -6 -6 -7 -7 -7 -7 -8 -8 -8
-7 -7 -6 -6 -6 -6 -5 -5 -5 -5 -4 -5 -5 -5 -5 -5 -5 -5 -5 -6 -6 -6 -6 -6 -6 -6 -6 -6 -6 -6 -6 -6 -6 -6 -7 -7 -6 -6 -6 -6 -7 -7 -7 -7 -7 -7 -8 -8 -7
-7 -7 -6 -5 -7 -6 -6 -6 -5 -5 -4 -4 -4 -4 -4 -5 -5 -5 -5 -5 -6 -6 -6 -7 -6 -7 -6 -6 -6 -6 -7 -7 -7 -6 -7 -7 -6 -6 -6 -6 -7 -7 -7 -7 -8 -8 -8 -8 -8
-7 -7 -6 -6 -7 -8 -7 -6 -5 -5 -5 -4 -4 -4 -4 -5 -6 -6 -5 -6 -6 -5 -6 -6 -6 -6 -6 -7 -7 -7 -7 -7 -7 -7 -7 -7 -7 -6 -6 -6 -6 -6 -7 -7 -7 -7 -8 -8 -8
-8 -7 -6 -6 -7 -7 -8 -7 -5 -5 -4 -5 -4 -4 -5 -5 -5 -6 -5 -6 -6 -6 -6 -6 -6 -6 -7 -7 -7 -7 -7 -7 -7 -7 -7 -7 -7 -7 -6 -6 -7 -7 -7 -7 -7 -7 -8 -7 -7
-9 -8 -7 -7 -8 -7 -7 -7 -6 -6 -6 -6 -6 -4 -5 -5 -6 -6 -6 -6 -6 -6 -6 -5 -6 -6 -7 -7 -7 -7 -7 -7 -7 -6 -6 -7 -7 -7 -7 -7 -7 -7 -7 -7 -7 -7 -8 -8 -8
-9 -8 -7 -7 -8 -7 -7 -7 -7 -6 -6 -5 -6 -6 -6 -5 -5 -5 -6 -6 -6 -6 -6 -6 -6 -6 -7 -7 -7 -7 -7 -7 -7 -7 -7 -6 -6 -7 -7 -7 -7 -7 -7 -7 -7 -7 -8 -8 -8
-8 -8 -7 -7 -7 -7 -6 -7 -7 -6 -6 -5 -5 -6 -5 -5 -5 -5 -6 -6 -6 -6 -6 -6 -6 -6 -7 -7 -7 -7 -7 -7 -7 -7 -7 -6 -6 -6 -6 -6 -6 -6 -7 -6 -7 -7 -8 -8 -7
-7 -7 -8 -7 -7 -7 -6 -7 -7 -6 -6 -6 -6 -5 -5 -5 -6 -6 -6 -6 -6 -6 -6 -6 -6 -6 -6 -6 -6 -7 -7 -7 -6 -7 -7 -7 -6 -6 -6 -6 -6 -6 -6 -7 -7 -7 -7 -7 -7
-7 -7 -7 -7 -7 -8 -7 -6 -7 -6 -6 -5 -6 -6 -6 -6 -5 -5 -6 -6 -6 -6 -6 -6 -6 -6 -6 -7 -7 -6 -6 -6 -6 -6 -7 -7 -7 -7 -7 -6 -7 -7 -7 -7 -7 -7 -6 -7 -7
-7 -8 -8 -7 -7 -7 -7 -7 -6 -7 -6 -6 -6 -6 -6 -6 -5 -4 -6 -6 -6 -6 -6 -6 -6 -6 -6 -6 -6 -6 -6 -6 -7 -7 -7 -7 -7 -7 -7 -7 -7 -7 -7 -7 -7 -7 -7 -7 -7
-8 -8 -8 -7 -8 -8 -7 -6 -7 -7 -6 -6 -6 -6 -6 -6 -6 -5 -5 -7 -6 -7 -7 -7 -7 -7 -7 -7 -6 -6 -6 -7 -8 -7 -7 -7 -7 -7 -7 -7 -7 -6 -6 -7 -7 -7 -7 -7 -8
-8 -8 -8 -8 -8 -8 -8 -7 -7 -7 -6 -6 -7 -6 -6 -6 -6 -6 -6 -7 -7 -7 -7 -7 -7 -7 -7 -7 -7 -7 -7 -7 -7 -7 -7 -7 -7 -7 -7 -7 -7 -7 -7 -7 -7 -7 -7 -7 -7
-8 -8 -8 -8 -8 -7 -7 -7 -7 -8 -7 -7 -7 -7 -7 -7 -8 -7 -6 -6 -7 -7 -7 -7 -7 -8 -8 -8 -8 -7 -7 -7 -7 -7 -7 -7 -7 -7 -7 -7 -7 -7 -7 -7 -8 -7 -7 -7 -7
-8 -8 -8 -8 -7 -7 -7 -8 -7 -7 -7 -7 -8 -7 -7 -7 -8 -7 -7 -6 -7 -7 -7 -7 -7 -8 -8 -7 -7 -7 -7 -7 -7 -7 -7 -7 -6 -7 -6 -5 -6 -6 -7 -7 -8 -8 -7 -7 -7
-8 -8 -7 -7 -7 -7 -7 -7 -7 -7 -7 -7 -7 -7 -7 -8 -7 -6 -7 -6 -7 -7 -7 -8 -8 -8 -8 -8 -8 -8 -7 -7 -7 -7 -7 -7 -6 -7 -6 -6 -6 -6 -7 -8 -8 -8 -7 -8 -7
-8 -7 -7 -7 -7 -7 -7 -7 -7 -7 -7 -8 -7 -7 -7 -7 -7 -8 -8 -6 -6 -7 -7 -8 -8 -9 -9 -8 -8 -8 -9 -8 -8 -7 -7 -7 -7 -7 -6 -6 -6 -6 -7 -7 -8 -8 -8 -8 -7
-8 -7 -7 -7 -7 -7 -7 -7 -7 -8 -7 -8 -8 -7 -7 -8 -8 -8 -8 -8 -7 -7 -6 -8 -8 -8 -9 -9 -8 -8 -8 -8 -9 -8 -8 -7 -7 -7 -7 -7 -7 -7 -7 -7 -7 -7 -7 -7 -7
-8 -8 -8 -8 -7 -7 -7 -7 -7 -7 -8 -8 -7 -8 -7 -6 -7 -8 -9 -9 -8 -8 -7 -7 -7 -8 -9 -8 -8 -8 -8 -9 -8 -9 -9 -8 -8 -7 -7 -7 -7 -7 -7 -7 -7 -7 -7 -7 -7
-8 -8 -8 -8 -8 -7 -8 -7 -7 -7 -8 -8 -8 -7 -7 -6 -7 -7 -8 -8 -7 -5 -6 -6 -7 -8 -9 -8 -8 -8 -8 -8 -8 -8 -8 -8 -7 -7 -7 -7 -7 -7 -7 -7 -7 -7 -6 -7 -7
-8 -8 -8 -8 -7 -8 -7 -8 -8 -8 -8 -7 -7 -6 -6 -5 -7 -7 -7 -6 -6 -6 -7 -8 -8 -9 -8 -8 -8 -8 -8 -8 -7 -7 -8 -8 -7 -7 -6 -6 -6 -6 -6 -6 -6 -6 -7 -6 -7
Height
5919 5918 5916 5915 5916 5913 5913 5913 5911 5909 5909 5910 5911 5911 5911 5907 5906 5910 5907 5906 5907 5906 5908 5908 5909 5908 5907 5908 5909 5909 5909 5909 5909 5910 5909 5908 5908 5907 5906 5905 5904 5904 5903 5901 5901 5902 5903 5903 5902
5921 5919 5917 5916 5917 5914 5915 5913 5913 5914 5911 5910 5909 5910 5911 5907 5905 5906 5907 5907 5907 5907 5909 5910 5910 5908 5908 5909 5910 5911 5911 5911 5911 5910 5910 5910 5909 5908 5907 5907 5907 5905 5904 5902 5902 5903 5903 5903 5901
5919 5918 5920 5916 5914 5918 5915 5914 5917 5917 5915 5915 5911 5909 5910 5907 5905 5906 5907 5907 5907 5907 5908 5909 5910 5909 5909 5910 5911 5912 5913 5912 5913 5912 5912 5912 5911 5910 5910 5910 5909 5907 5906 5905 5905 5903 5902 5902 5901
5919 5920 5918 5917 5914 5919 5915 5912 5912 5911 5916 5915 5915 5913 5910 5907 5905 5907 5907 5908 5908 5908 5909 5909 5909 5909 5910 5911 5912 5913 5913 5913 5914 5914 5912 5912 5912 5911 5910 5911 5911 5909 5907 5906 5905 5904 5903 5902 5900
5921 5920 5918 5918 5916 5917 5917 5914 5914 5911 5915 5916 5914 5913 5910 5909 5907 5908 5908 5908 5907 5908 5908 5909 5909 5909 5910 5911 5912 5912 5912 5913 5914 5914 5913 5913 5912 5910 5909 5909 5909 5909 5909 5908 5906 5906 5905 5902 5902
5919 5920 5916 5914 5915 5915 5914 5917 5918 5913 5913 5913 5913 5913 5912 5907 5907 5908 5908 5908 5908 5908 5909 5909 5909 5909 5910 5910 5911 5911 5911 5912 5913 5913 5912 5913 5911 5910 5910 5910 5910 5909 5909 5909 5908 5906 5905 5904 5905
5919 5917 5916 5913 5912 5912 5914 5916 5913 5914 5912 5911 5912 5913 5914 5908 5907 5908 5908 5909 5909 5909 5909 5909 5910 5910 5910 5910 5910 5910 5910 5911 5912 5913 5913 5912 5911 5910 5911 5910 5910 5911 5909 5909 5909 5908 5907 5905 5905
5919 5918 5920 5916 5913 5914 5916 5914 5910 5912 5912 5910 5910 5911 5914 5910 5909 5909 5909 5909 5909 5909 5909 5909 5910 5910 5910 5909 5908 5908 5907 5907 5909 5911 5912 5912 5912 5911 5910 5910 5909 5910 5910 5909 5911 5909 5908 5906 5905
5915 5920 5922 5919 5917 5918 5916 5914 5912 5912 5914 5912 5908 5906 5912 5913 5911 5910 5911 5910 5910 5909 5910 5910 5909 5909 5909 5909 5908 5907 5906 5906 5906 5908 5909 5910 5911 5911 5910 5910 5911 5911 5910 5910 5910 5910 5908 5906 5906
5922 5923 5922 5921 5919 5914 5916 5918 5917 5916 5915 5914 5908 5907 5909 5911 5912 5911 5912 5912 5911 5911 5910 5910 5909 5909 5909 5908 5907 5905 5904 5903 5903 5904 5906 5908 5910 5911 5911 5911 5911 5911 5910 5910 5911 5911 5908 5906 5906
5922 5922 5920 5921 5920 5918 5915 5916 5915 5913 5912 5913 5911 5909 5911 5911 5912 5913 5912 5912 5911 5912 5911 5911 5910 5910 5909 5907 5905 5903 5902 5900 5901 5904 5906 5907 5909 5910 5910 5911 5911 5911 5910 5911 5911 5910 5908 5906 5906
5923 5922 5922 5920 5922 5922 5920 5918 5914 5913 5913 5913 5913 5912 5913 5912 5913 5914 5914 5913 5913 5912 5911 5912 5910 5909 5908 5905 5902 5899 5899 5898 5896 5902 5906 5906 5907 5907 5908 5911 5910 5911 5910 5910 5911 5911 5908 5906 5905
5921 5922 5922 5923 5922 5921 5922 5922 5918 5915 5913 5911 5914 5913 5912 5913 5914 5914 5915 5914 5913 5913 5911 5911 5909 5907 5905 5905 5901 5898 5899 5900 5901 5905 5907 5907 5908 5909 5910 5911 5910 5909 5910 5910 5910 5910 5909 5906 5907
5922 5923 5923 5922 5921 5921 5922 5922 5918 5914 5911 5912 5912 5915 5914 5913 5914 5914 5914 5915 5915 5912 5912 5911 5909 5906 5906 5906 5901 5900 5901 5903 5904 5906 5908 5908 5910 5910 5910 5911 5911 5909 5910 5910 5908 5909 5907 5908 5908
5925 5922 5923 5923 5923 5922 5921 5922 5921 5918 5914 5913 5913 5914 5916 5915 5915 5916 5916 5916 5916 5914 5913 5912 5908 5907 5907 5906 5904 5901 5902 5904 5905 5906 5907 5908 5909 5909 5910 5909 5908 5907 5909 5909 5907 5907 5905 5905 5907
5925 5921 5925 5924 5923 5923 5923 5922 5922 5920 5918 5917 5916 5915 5913 5916 5917 5915 5915 5916 5916 5914 5912 5912 5909 5907 5907 5907 5906 5906 5905 5906 5906 5906 5907 5907 5907 5907 5906 5907 5906 5905 5906 5906 5907 5904 5902 5901 5903
5923 5924 5924 5926 5925 5924 5924 5922 5922 5923 5922 5920 5918 5920 5918 5915 5915 5915 5914 5915 5914 5913 5911 5912 5910 5907 5907 5908 5907 5907 5907 5909 5909 5908 5906 5907 5908 5908 5908 5907 5904 5904 5904 5904 5904 5902 5901 5901 5901
5920 5922 5924 5925 5925 5924 5925 5924 5924 5924 5924 5922 5920 5920 5921 5919 5916 5915 5917 5915 5913 5912 5913 5912 5911 5908 5908 5909 5909 5910 5910 5910 5909 5908 5906 5905 5906 5906 5906 5905 5904 5904 5904 5903 5901 5900 5900 5901 5901
5920 5922 5924 5925 5924 5924 5924 5924 5923 5924 5924 5923 5921 5920 5919 5922 5921 5918 5919 5918 5916 5914 5914 5912 5911 5910 5910 5910 5910 5910 5909 5909 5909 5907 5907 5906 5905 5904 5903 5902 5902 5903 5903 5901 5900 5898 5887 5899 5900
5919 5920 5924 5926 5924 5924 5923 5922 5922 5924 5925 5925 5924 5924 5924 5924 5926 5921 5919 5918 5918 5914 5912 5913 5912 5911 5911 5911 5911 5911 5910 5909 5908 5907 5906 5905 5904 5903 5902 5901 5900 5901 5900 5899 5898 5898 5897 5898 5898
5918 5920 5921 5924 5924 5922 5924 5923 5920 5923 5924 5925 5925 5924 5925 5926 5926 5925 5920 5918 5919 5917 5917 5916 5913 5913 5912 5912 5912 5911 5909 5908 5908 5907 5906 5905 5906 5905 5902 5901 5900 5900 5900 5899 5897 5897 5896 5896 5896
5918 5919 5923 5923 5924 5925 5923 5922 5922 5918 5921 5923 5924 5926 5928 5927 5930 5928 5923 5919 5919 5920 5918 5917 5915 5913 5912 5912 5913 5912 5912 5910 5908 5907 5906 5909 5909 5906 5903 5900 5898 5898 5896 5897 5897 5897 5897 5896 5894
5916 5919 5921 5922 5922 5922 5923 5922 5922 5918 5916 5921 5922 5923 5926 5928 5928 5928 5927 5923 5919 5918 5917 5916 5916 5911 5912 5913 5913 5912 5912 5910 5907 5906 5907 5910 5910 5909 5903 5890 5898 5897 5895 5894 5894 5894 5894 5893 5890
5915 5917 5918 5919 5920 5921 5921 5921 5920 5916 5917 5918 5919 5920 5923 5924 5923 5923 5922 5919 5917 5914 5917 5914 5916 5914 5911 5914 5913 5910 5910 5909 5909 5907 5907 5909 5908 5907 5904 5902 5901 5897 5894 5895 5893 5892 5891 5889 5889
5912 5914 5916 5917 5919 5920 5920 5919 5915 5916 5915 5915 5915 5917 5919 5917 5914 5918 5922 5920 5917 5915 5913 5911 5910 5911 5909 5909 5908 5908 5908 5908 5907 5906 5907 5906 5906 5905 5905 5903 5901 5899 5894 5891 5892 5891 5889 5885 5886
5911 5913 5915 5917 5917 5917 5916 5916 5915 5911 5912 5913 5911 5911 5913 5912 5914 5917 5920 5917 5915 5913 5906 5910 5907 5907 5906 5908 5909 5907 5905 5904 5904 5904 5904 5905 5904 5904 5901 5901 5900 5897 5893 5891 5891 5890 5888 5887 5887
5909 5910 5913 5914 5913 5913 5913 5915 5915 5908 5910 5909 5909 5905 5904 5908 5910 5912 5913 5915 5912 5911 5906 5904 5905 5905 5903 5904 5906 5905 5903 5900 5901 5899 5901 5903 5902 5902 5900 5898 5897 5896 5894 5893 5891 5890 5887 5885 5885
5904 5908 5909 5910 5910 5910 5910 5910 5912 5913 5908 5898 5896 5896 5899 5906 5899 5901 5904 5901 5900 5903 5901 5896 5894 5895 5896 5897 5899 5900 5899 5896 5897 5897 5896 5896 5896 5896 5896 5896 5894 5892 5892 5891 5889 5887 5885 5882 5880
5902 5904 5906 5908 5908 5906 5904 5906 5907 5907 5909 5898 5897 5891 5895 5897 5896 5896 5897 5897 5896 5897 5885 5886 5884 5883 5885 5885 5892 5895 5894 5894 5893 5892 5891 5890 5889 5890 5890 5890 5890 5890 5889 5888 5886 5885 5883 5881 5879
5899 5901 5902 5903 5905 5900 5901 5902 5900 5901 5905 5904 5898 5896 5889 5885 5884 5888 5888 5894 5892 5889 5880 5885 5879 5874 5878 5881 5883 5888 5889 5888 5887 5886 5885 5884 5883 5883 5883 5883 5882 5883 5883 5883 5882 5881 5879 5877 5875
Wind_Speed
6 3 2 5 7 2 13 5 14 16 14 14 11 11 9 9 9 7 7 9 7 12 9 8 8 7 6 6 6 4 3 3 3 3 5 4 3 2 4 3 4 4 6 7 8 7 5 5 6
9 2 4 13 6 9 7 6 10 10 10 10 10 11 6 7 7 7 6 5 6 10 9 7 5 6 5 4 5 4 4 2 2 3 5 4 3 3 4 3 3 5 6 7 6 6 6 5 4
4 4 10 22 8 8 5 4 7 5 6 9 10 10 7 5 7 5 5 5 5 8 7 7 6 6 5 4 3 4 4 2 1 3 5 5 5 6 6 3 4 5 5 6 6 4 4 4 2
7 14 16 20 14 16 1 11 9 7 7 8 5 5 5 4 6 6 4 4 6 7 5 5 6 6 6 4 3 2 1 2 2 2 2 4 6 6 6 4 4 3 4 6 5 4 4 2 2
8 3 6 12 10 9 9 13 9 8 10 8 6 7 6 4 7 7 7 8 6 6 6 6 6 6 6 4 3 2 3 2 1 1 3 3 5 4 4 3 2 2 3 3 5 4 3 5 2
7 10 17 12 8 9 7 7 4 9 11 9 11 10 9 9 9 8 7 7 8 9 7 5 5 5 5 4 2 2 4 4 3 2 3 2 1 2 4 3 1 2 4 2 2 3 2 2 4
6 11 19 16 12 11 8 6 15 7 8 12 13 8 12 9 9 8 7 5 4 5 5 5 3 3 2 1 1 4 4 5 6 5 3 3 1 3 4 3 1 1 2 3 1 0 1 2 3
6 11 16 11 9 4 7 7 2 8 8 9 9 10 13 10 7 7 6 4 4 5 3 2 2 1 0 2 3 4 5 9 9 7 5 3 2 2 1 1 1 0 3 3 1 1 1 1 2
8 5 10 10 7 3 13 9 4 11 9 6 8 8 11 12 6 8 6 3 2 3 4 2 2 1 2 3 2 4 3 8 9 11 9 5 3 2 3 4 2 0 2 2 0 1 3 3 2
4 12 9 8 12 14 16 13 8 7 9 8 9 10 9 11 9 7 6 5 4 2 5 2 1 3 3 1 4 6 7 12 6 16 13 7 5 6 5 5 2 2 1 0 2 1 5 4 2
10 12 12 9 10 14 15 13 11 10 10 8 8 7 7 7 9 6 7 6 3 5 4 3 2 3 6 6 8 8 8 9 10 13 12 7 4 6 9 7 3 2 1 1 3 1 3 4 3
11 13 10 10 5 15 17 13 12 10 9 6 4 2 5 6 6 4 7 5 3 5 6 3 5 4 1 7 10 4 0 9 11 20 11 9 5 1 8 8 3 0 4 4 2 2 1 1 6
16 11 8 11 16 13 18 14 8 9 10 9 6 4 5 6 7 4 7 6 3 5 5 6 7 5 6 9 8 11 11 13 17 14 10 6 5 5 7 5 6 4 5 4 1 1 4 3 6
14 8 8 19 20 17 18 18 11 13 12 15 12 8 4 5 5 3 2 3 1 4 2 4 6 7 7 11 11 11 12 10 9 10 8 5 4 3 3 3 4 3 1 5 2 2 5 6 4
5 9 5 15 19 13 15 18 16 16 14 13 11 8 4 8 5 6 5 4 3 2 3 3 4 5 6 10 14 8 9 10 9 8 8 5 1 1 1 4 6 7 7 4 3 2 3 4 2
6 10 2 12 16 14 11 13 17 17 10 10 9 5 7 7 5 5 8 5 3 3 4 2 2 3 5 8 10 11 11 8 6 4 5 6 7 6 3 5 4 8 8 7 6 2 1 3 2
11 6 5 8 14 16 7 12 14 13 7 5 7 7 6 6 9 9 8 4 3 1 3 1 1 4 5 4 7 5 6 6 5 3 2 1 4 7 7 4 3 6 10 8 6 4 2 2 1
12 3 6 8 13 15 12 10 9 12 11 6 7 8 7 4 8 11 8 8 5 4 3 4 1 2 4 4 5 5 5 4 2 2 1 3 2 4 5 2 2 2 6 6 6 6 6 4 2
11 6 6 9 11 17 13 10 7 14 17 15 6 11 9 11 3 10 9 7 6 6 6 6 5 4 5 6 6 7 8 7 7 1 4 3 1 4 7 8 7 7 7 6 7 9 9 8 3
12 6 1 8 10 17 13 12 11 15 23 23 17 17 15 11 9 5 12 9 4 6 5 2 6 7 8 6 7 7 9 7 5 3 1 5 6 4 6 9 9 10 10 8 6 6 6 4 7
17 7 13 2 7 10 13 11 15 17 12 16 21 18 16 10 13 7 11 13 10 13 13 9 7 7 7 5 6 6 8 7 6 2 2 7 6 10 7 10 9 12 11 10 8 3 4 5 6
18 14 6 7 10 13 11 15 10 22 7 12 17 15 15 11 21 17 3 11 10 7 6 8 10 10 9 7 6 6 7 7 7 3 4 7 8 15 15 16 11 11 11 10 9 7 4 6 6
19 7 7 13 20 18 18 19 11 21 26 21 22 17 10 11 9 12 6 5 6 6 6 6 7 11 10 8 6 6 7 7 6 6 7 5 10 17 30 13 14 10 11 10 7 8 8 11 14
10 10 13 21 17 13 7 12 11 20 26 23 29 19 17 13 11 13 14 8 5 6 3 6 5 7 8 6 7 6 5 5 5 7 10 8 12 14 17 18 18 11 6 11 3 3 7 10 5
16 12 11 16 13 4 8 13 19 27 29 26 24 27 27 23 21 18 16 10 6 2 4 4 2 1 1 1 1 3 3 3 6 6 7 11 13 15 14 15 14 15 12 9 4 8 12 12 6
21 7 8 8 2 7 13 19 22 30 30 16 25 34 34 34 23 20 17 16 10 6 7 3 3 6 4 4 5 4 5 6 6 8 9 10 13 14 15 15 15 14 13 13 8 11 12 12 9
15 19 8 12 12 11 15 15 17 19 19 18 22 31 38 24 28 25 26 23 13 8 6 2 4 5 6 6 8 9 9 8 11 10 11 10 11 11 13 15 15 13 11 9 7 8 13 14 10
21 18 20 15 18 16 19 18 18 21 17 19 29 28 30 31 35 24 15 26 24 11 11 7 9 7 8 8 9 10 9 11 12 15 17 16 15 15 14 13 15 15 15 13 12 12 13 13 12
16 24 25 21 22 21 25 25 25 14 11 19 23 31 28 37 34 32 26 24 20 17 13 17 13 12 15 16 7 11 15 16 16 18 21 21 21 20 20 18 17 17 17 17 17 16 16 15 15
16 17 14 20 23 28 24 21 29 19 17 15 24 28 32 36 27 42 41 22 19 22 14 24 20 21 15 9 10 14 20 20 21 20 23 25 25 26 26 26 25 25 24 23 22 21 21 20 19
Wind_Direction
37 46 128 227 190 7 112 101 27 17 37 56 66 53 50 63 66 78 81 114 132 115 118 123 124 127 110 97 81 70 86 89 55 39 46 51 99 126 134 152 135 135 137 135 122 123 112 90 85
39 44 300 328 239 79 94 96 4 16 13 26 42 71 44 72 69 74 75 89 141 126 125 119 113 132 135 101 85 64 58 74 34 26 30 28 66 78 90 117 108 114 113 121 112 101 104 94 93
17 6 346 309 80 113 93 38 62 15 30 39 23 40 50 53 73 73 67 101 131 134 132 128 116 113 137 113 74 64 36 31 354 16 22 18 42 52 54 66 88 102 108 112 107 99 83 99 107
12 351 359 13 73 72 131 27 12 15 10 53 59 73 61 41 91 77 62 66 103 97 116 131 130 137 132 117 87 70 34 10 25 340 355 28 38 46 57 66 86 116 119 110 115 126 112 123 149
22 10 49 50 17 39 25 8 25 8 25 69 74 72 69 93 86 79 68 83 99 102 107 134 144 145 159 156 149 186 209 272 338 293 328 11 36 42 53 84 98 115 135 123 114 126 171 218 200
315 359 7 7 20 46 38 15 92 20 7 61 72 92 88 76 74 76 90 99 89 99 109 114 141 143 152 161 188 262 247 247 254 279 290 3 27 65 43 47 62 129 151 165 124 125 146 241 238
333 1 19 351 347 12 36 37 49 42 36 65 77 80 83 68 60 75 78 95 101 96 109 121 128 136 141 89 76 338 280 260 260 261 295 269 317 60 43 39 353 348 177 196 159 142 33 323 289
79 36 21 18 22 7 71 69 195 81 37 52 75 82 71 80 65 67 78 75 121 81 104 105 89 127 245 95 140 12 241 227 232 238 245 263 267 142 208 345 283 262 247 211 241 266 262 334 4
63 17 26 13 41 30 55 40 5 53 54 54 59 47 62 72 63 80 99 167 237 127 116 105 102 4 279 125 332 319 297 257 251 213 220 227 231 236 245 264 260 113 246 265 213 236 249 241 285
76 13 351 29 52 43 68 50 45 66 84 82 58 48 47 64 69 58 76 90 135 111 86 57 26 59 85 48 323 320 294 272 285 199 204 209 220 243 229 265 210 160 251 287 59 242 228 225 238
59 13 342 0 55 45 46 45 51 50 57 63 53 50 62 51 72 59 74 84 113 95 105 80 73 37 9 339 325 295 276 259 243 199 194 186 208 285 218 221 242 198 167 140 93 195 218 223 222
53 4 352 326 26 65 64 53 37 43 48 51 64 70 84 78 79 73 91 102 118 111 94 90 62 15 21 20 348 344 230 271 248 177 178 172 156 19 176 177 213 210 241 209 110 235 42 313 211
52 9 25 52 38 32 57 39 44 53 57 37 58 53 82 93 109 106 96 80 41 77 65 63 65 72 39 24 18 100 95 95 117 141 156 156 160 163 167 203 224 246 199 230 172 18 26 88 162
35 339 37 32 36 38 45 37 30 35 47 39 35 56 67 106 112 138 132 102 224 93 84 73 53 53 59 39 48 125 129 119 127 140 141 157 193 218 198 237 267 312 175 230 110 49 45 60 133
4 312 53 18 24 22 35 43 34 33 42 39 21 32 66 89 105 151 120 122 148 154 133 89 57 50 64 47 39 109 156 134 136 138 144 164 159 82 221 256 297 297 249 227 248 184 63 37 76
222 281 251 24 22 12 26 30 16 35 33 38 62 37 28 74 94 124 128 126 149 114 105 71 81 66 78 77 62 73 106 127 117 129 171 181 182 178 189 288 264 223 229 224 237 258 183 357 74
192 214 359 24 31 6 25 16 8 34 48 61 61 66 62 57 92 94 107 149 150 112 96 143 155 108 89 73 82 68 81 69 65 71 47 234 210 203 179 131 149 179 218 221 231 247 230 247 77
188 80 339 10 20 358 24 0 6 20 46 74 67 67 40 86 100 95 87 94 76 78 87 83 135 132 105 91 70 60 37 15 337 236 291 323 276 230 213 211 206 228 244 231 241 262 238 216 231
125 102 66 333 7 348 359 352 350 22 33 34 28 51 41 352 67 108 96 86 87 95 78 80 75 64 58 49 56 31 16 356 8 8 264 296 305 242 208 213 217 245 256 261 262 280 244 248 259
148 134 26 298 347 343 344 352 4 27 37 39 37 25 11 16 332 89 92 84 77 74 82 82 86 84 78 67 59 61 38 32 70 51 359 300 291 281 245 229 227 240 257 262 267 348 329 279 308
133 149 242 302 349 325 311 1 351 3 36 43 11 12 11 9 353 331 116 98 90 91 77 75 86 92 95 79 71 67 63 60 86 85 281 280 300 309 293 291 262 254 253 258 265 259 314 310 307
156 189 244 242 264 274 280 303 323 318 352 15 352 347 358 334 340 309 176 115 110 92 53 73 79 84 94 93 73 71 69 64 50 39 298 316 331 327 321 290 253 238 252 256 261 276 289 297 319
160 197 258 225 228 252 260 268 305 297 297 311 311 310 327 316 331 295 274 106 124 114 87 91 89 97 102 100 93 72 38 14 24 337 328 335 335 339 347 342 244 243 258 251 243 248 261 271 274
155 219 250 241 258 289 189 239 289 302 317 299 280 282 290 270 269 239 231 192 156 119 52 89 69 84 88 69 66 55 42 40 23 16 11 3 360 15 20 26 33 9 301 303 36 338 287 259 222
179 205 207 223 185 97 321 278 297 309 310 314 323 307 306 285 264 208 233 209 197 128 55 37 59 92 109 289 350 41 24 14 6 345 356 349 349 353 2 14 13 21 17 318 332 332 318 325 237
185 185 196 177 229 298 307 297 303 299 310 317 316 313 301 293 281 265 213 236 218 205 129 345 357 281 282 297 310 330 35 11 342 321 324 328 322 327 339 348 353 3 8 11 324 306 304 311 333
197 215 203 240 252 276 299 297 287 295 322 325 285 271 258 255 276 263 273 207 221 239 237 199 296 292 288 300 303 309 331 320 335 331 321 303 304 312 318 321 328 334 338 341 334 310 293 297 308
223 218 226 235 255 265 277 282 278 291 293 281 310 286 288 291 273 245 203 189 204 226 256 219 244 264 268 256 280 298 305 319 310 319 313 308 305 303 300 299 304 310 309 307 307 311 309 314 301
215 230 238 237 248 262 271 278 275 262 248 284 286 294 296 302 274 264 242 211 213 214 235 253 240 250 243 232 259 288 293 293 295 293 297 300 301 297 292 291 288 286 287 290 293 293 292 291 289
216 240 240 237 240 246 257 273 286 283 288 293 281 314 313 313 276 248 245 238 220 237 243 258 248 219 231 257 262 281 294 288 289 292 294 293 291 289 288 289 289 287 284 282 279 274 279 281 279